Date,TemperatureHighF,TemperatureAvgF,TemperatureLowF,DewpointHighF,DewpointAvgF,DewpointLowF,HumidityHigh,HumidityAvg,HumidityLow,PressureMaxIn,PressureMinIn,WindSpeedMaxMPH,WindSpeedAvgMPH,GustSpeedMaxMPH,PrecipitationSumIn
2013-3-1,75.0,69.2,65.0,59.0,55.5,53.0,71,62,51,0.00,40.00,10,7,42,0.05
2013-3-2,78.0,70.1,66.0,58.0,54.3,50.0,72,58,39,0.00,40.00,13,8,32,0.02
2013-3-3,77.0,69.3,64.0,56.0,52.3,48.0,66,56,41,0.00,40.00,12,7,33,0.01
2013-3-4,78.0,69.1,64.0,58.0,53.3,51.0,66,58,43,0.00,40.00,10,6,27,0.01
2013-3-5,80.0,69.6,63.0,58.0,53.4,50.0,70,58,36,0.00,40.00,9,6,27,0.01
2013-3-6,79.0,69.9,60.0,62.0,58.3,54.0,84,68,51,0.00,40.00,9,5,19,0.00
2013-3-7,82.0,67.0,57.0,59.0,54.5,51.0,84,67,39,0.00,40.00,8,6,19,0.01
2013-3-8,80.0,68.6,56.0,63.0,55.2,45.0,90,67,29,0.00,40.00,9,6,22,0.01
2013-3-9,79.0,70.7,65.0,67.0,63.5,61.0,95,79,59,0.00,40.00,13,6,25,0.67
2013-3-10,69.0,65.1,61.0,66.0,63.7,58.0,98,95,90,0.00,40.00,5,2,11,1.50
2013-3-11,81.0,67.6,58.0,65.0,58.9,57.0,96,77,44,0.00,40.00,9,6,16,0.01
2013-3-12,79.0,68.8,60.0,63.0,57.9,52.0,91,70,42,0.00,40.00,9,6,25,0.01
2013-3-13,78.0,66.6,59.0,61.0,56.6,54.0,88,72,44,0.00,40.00,8,5,18,0.00
2013-3-14,80.0,67.1,59.0,61.0,56.8,53.0,90,72,47,0.00,40.00,6,5,14,0.00
2013-3-15,74.0,65.9,60.0,61.0,57.5,56.0,90,76,57,0.00,40.00,9,5,20,0.00
2013-3-16,73.0,66.6,63.0,58.0,54.1,50.0,79,65,48,0.00,40.00,11,8,28,0.00
2013-3-17,73.0,64.9,58.0,58.0,53.9,50.0,92,69,44,0.00,40.00,10,5,20,0.14
2013-3-18,76.0,64.8,55.0,57.0,54.3,52.0,90,71,45,0.00,40.00,7,5,15,0.02
2013-3-19,81.0,67.8,57.0,64.0,57.6,53.0,91,72,45,0.00,40.00,9,5,22,0.02
2013-3-20,82.0,70.1,59.0,63.0,59.5,54.0,94,73,38,0.00,40.00,9,6,21,0.02
2013-3-21,84.0,72.2,63.0,68.0,61.6,55.0,84,70,50,0.00,40.00,9,6,21,0.02
2013-3-22,76.0,71.1,66.0,68.0,65.6,63.0,95,83,68,0.00,40.00,9,4,16,0.15
2013-3-23,76.0,68.9,65.0,66.0,61.6,60.0,97,78,63,0.00,40.00,12,7,33,0.18
2013-3-24,70.0,68.2,63.0,67.0,62.8,60.0,94,83,75,0.00,40.00,11,6,31,0.11
2013-3-25,82.0,70.2,60.0,67.0,62.0,56.0,92,77,52,0.00,40.00,9,5,18,0.01
2013-3-26,79.0,69.9,62.0,67.0,63.1,60.0,94,80,57,0.00,40.00,6,4,12,0.02
2013-3-27,71.0,67.5,64.0,65.0,63.4,59.0,91,87,80,0.00,40.00,11,5,52,0.79
2013-3-28,79.0,73.7,68.0,61.0,59.5,58.0,73,61,52,0.00,40.00,15,9,40,0.07
2013-3-29,78.0,69.9,63.0,62.0,60.3,59.0,89,72,58,0.00,40.00,11,7,34,0.02
2013-3-30,79.0,70.0,62.0,65.0,58.6,-99.9,93,73,49,0.00,40.00,13,6,28,0.01
2013-3-31,72.0,65.2,58.0,56.0,50.8,47.0,74,60,46,0.00,40.00,11,7,30,0.01